NDF57EL EDDF-LOWS

Flight info

Callsign NDF57EL
Flight time 0h 38m
Altitude 29000
Route CINDY8S CINDY Z74 HAREM DCT ASLEP DCT TAKUT DCT DINKU L603 OLETU T702 BADIT BADIT2R
Aircraft A321/M-SDE3FGHIRWY/LB1

Departure

Time 2026-04-15 13:32
Airport Frankfurt Main Airport (EDDF)

Arrival

Time 2026-04-15 14:10
Airport Salzburg Airport (LOWS)
Time Latitude Longitude Altitude Speed Heading
2026-04-15 12:56 50.04420 8.56274 360 ft 0 kts 162°
2026-04-15 12:59 50.04418 8.56275 358 ft 0 kts 162°
2026-04-15 13:19 50.04431 8.56268 363 ft 3 kts 161°
2026-04-15 13:19 50.04457 8.56255 360 ft 3 kts 166°
2026-04-15 13:19 50.04480 8.56250 360 ft 3 kts 204°
2026-04-15 13:20 50.04492 8.56275 362 ft 4 kts 257°
2026-04-15 13:20 50.04499 8.56309 363 ft 4 kts 249°
2026-04-15 13:20 50.04504 8.56331 363 ft 4 kts 250°
2026-04-15 13:21 50.04509 8.56352 361 ft 4 kts 250°
2026-04-15 13:21 50.04513 8.56370 363 ft 4 kts 250°
2026-04-15 13:21 50.04515 8.56379 360 ft 0 kts 250°
2026-04-15 13:24 50.04510 8.56357 362 ft 7 kts 250°
2026-04-15 13:24 50.04483 8.56242 359 ft 14 kts 250°
2026-04-15 13:24 50.04452 8.56113 363 ft 8 kts 250°
2026-04-15 13:24 50.04395 8.56035 360 ft 17 kts 184°
2026-04-15 13:25 50.04299 8.56065 360 ft 12 kts 193°
2026-04-15 13:25 50.04250 8.55971 359 ft 11 kts 249°
2026-04-15 13:25 50.04218 8.55832 356 ft 19 kts 250°
2026-04-15 13:25 50.04164 8.55625 359 ft 21 kts 248°
2026-04-15 13:26 50.04114 8.55420 341 ft 20 kts 250°
2026-04-15 13:26 50.04069 8.55226 358 ft 18 kts 250°
2026-04-15 13:26 50.04026 8.55046 356 ft 17 kts 249°
2026-04-15 13:26 50.03984 8.54872 353 ft 18 kts 249°
2026-04-15 13:27 50.03941 8.54691 355 ft 18 kts 249°
2026-04-15 13:27 50.03897 8.54506 353 ft 18 kts 250°
2026-04-15 13:27 50.03837 8.54335 349 ft 17 kts 230°
2026-04-15 13:27 50.03784 8.54170 350 ft 17 kts 250°
2026-04-15 13:28 50.03748 8.53997 354 ft 17 kts 250°
2026-04-15 13:28 50.03708 8.53829 345 ft 17 kts 250°
2026-04-15 13:28 50.03667 8.53666 344 ft 16 kts 247°
2026-04-15 13:28 50.03623 8.53503 341 ft 16 kts 249°
2026-04-15 13:29 50.03584 8.53342 337 ft 16 kts 249°
2026-04-15 13:29 50.03544 8.53181 335 ft 16 kts 249°
2026-04-15 13:29 50.03505 8.53021 333 ft 16 kts 250°
2026-04-15 13:29 50.03468 8.52862 333 ft 16 kts 250°
2026-04-15 13:30 50.03426 8.52708 332 ft 15 kts 246°
2026-04-15 13:30 50.03357 8.52599 334 ft 14 kts 193°
2026-04-15 13:30 50.03319 8.52598 335 ft 0 kts 178°
2026-04-15 13:30 50.03318 8.52598 335 ft 1 kts 178°
2026-04-15 13:31 50.03160 8.52605 336 ft 58 kts 179°
2026-04-15 13:31 50.02536 8.52612 336 ft 121 kts 179°
2026-04-15 13:31 50.01509 8.52624 335 ft 168 kts 179°
2026-04-15 13:31 50.00302 8.52674 734 ft 172 kts 177°
2026-04-15 13:32 49.99164 8.52760 1616 ft 157 kts 175°
2026-04-15 13:32 49.98102 8.52885 2335 ft 151 kts 173°
2026-04-15 13:32 49.96999 8.53073 2614 ft 168 kts 170°
2026-04-15 13:32 49.95862 8.53580 3023 ft 173 kts 149°
2026-04-15 13:33 49.95103 8.54973 3569 ft 169 kts 116°
2026-04-15 13:33 49.94612 8.56633 4097 ft 169 kts 114°
2026-04-15 13:33 49.94128 8.58377 4362 ft 186 kts 113°
2026-04-15 13:33 49.93858 8.60451 4509 ft 210 kts 91°
2026-04-15 13:34 49.93912 8.62858 4689 ft 235 kts 90°
2026-04-15 13:34 49.93880 8.65510 5066 ft 256 kts 94°
2026-04-15 13:34 49.93510 8.68218 5708 ft 263 kts 114°
2026-04-15 13:34 49.92525 8.70673 6446 ft 268 kts 134°
2026-04-15 13:35 49.91084 8.72515 7177 ft 271 kts 147°
2026-04-15 13:35 49.89552 8.74190 7904 ft 276 kts 143°
2026-04-15 13:35 49.88189 8.76321 8618 ft 282 kts 128°
2026-04-15 13:35 49.87170 8.78957 9348 ft 288 kts 120°
2026-04-15 13:36 49.86199 8.81689 10081 ft 292 kts 120°
2026-04-15 13:36 49.85195 8.84487 10501 ft 307 kts 120°
2026-04-15 13:36 49.84109 8.87482 10663 ft 330 kts 121°
2026-04-15 13:36 49.82944 8.90683 10786 ft 352 kts 121°
2026-04-15 13:37 49.81713 8.94062 11114 ft 366 kts 120°
2026-04-15 13:37 49.80456 8.97514 11718 ft 371 kts 120°
2026-04-15 13:37 49.79180 9.01006 12359 ft 375 kts 121°
2026-04-15 13:37 49.77886 9.04535 13033 ft 378 kts 121°
2026-04-15 13:38 49.76626 9.08133 13665 ft 384 kts 115°
2026-04-15 13:38 49.75744 9.11990 14238 ft 388 kts 104°
2026-04-15 13:38 49.75019 9.16027 14788 ft 392 kts 111°
2026-04-15 13:38 49.73826 9.19821 15323 ft 394 kts 123°
2026-04-15 13:39 49.72181 9.23210 15892 ft 396 kts 133°
2026-04-15 13:39 49.70346 9.26406 16455 ft 399 kts 133°
2026-04-15 13:39 49.68507 9.29637 17008 ft 402 kts 132°
2026-04-15 13:39 49.66661 9.32898 17553 ft 405 kts 132°
2026-04-15 13:40 49.64807 9.36182 18080 ft 408 kts 132°
2026-04-15 13:40 49.63021 9.39533 18578 ft 412 kts 126°
2026-04-15 13:40 49.61560 9.43350 19013 ft 417 kts 116°
2026-04-15 13:40 49.60520 9.47542 19447 ft 420 kts 109°
2026-04-15 13:41 49.59611 9.51838 19892 ft 423 kts 109°
2026-04-15 13:41 49.58690 9.56160 20329 ft 426 kts 109°
2026-04-15 13:41 49.57756 9.60512 20758 ft 429 kts 109°
2026-04-15 13:41 49.56812 9.64888 21181 ft 432 kts 109°
2026-04-15 13:42 49.55858 9.69289 21622 ft 434 kts 108°
2026-04-15 13:42 49.54906 9.73656 22058 ft 437 kts 108°
2026-04-15 13:42 49.53935 9.78110 22488 ft 440 kts 109°
2026-04-15 13:42 49.52746 9.82462 22902 ft 443 kts 118°
2026-04-15 13:43 49.51109 9.86496 23307 ft 446 kts 127°
2026-04-15 13:43 49.49163 9.90223 23731 ft 448 kts 129°
2026-04-15 13:43 49.47192 9.93950 24087 ft 451 kts 129°
2026-04-15 13:43 49.45210 9.97710 24421 ft 454 kts 129°
2026-04-15 13:44 49.43217 10.01490 24748 ft 456 kts 129°
2026-04-15 13:44 49.41214 10.05282 25068 ft 459 kts 128°
2026-04-15 13:44 49.39190 10.09104 25394 ft 462 kts 128°
2026-04-15 13:44 49.37181 10.12888 25711 ft 465 kts 128°
2026-04-15 13:45 49.35132 10.16743 26022 ft 468 kts 128°
2026-04-15 13:45 49.33070 10.20616 26340 ft 470 kts 128°
2026-04-15 13:45 49.30991 10.24515 26642 ft 473 kts 128°
2026-04-15 13:47 49.15152 10.50897 28723 ft 491 kts 134°
2026-04-15 13:47 49.12703 10.54522 29111 ft 491 kts 134°
2026-04-15 13:47 49.10253 10.58148 29241 ft 487 kts 134°
2026-04-15 13:48 49.05448 10.65247 29252 ft 477 kts 134°
2026-04-15 13:48 49.00686 10.72268 29248 ft 475 kts 133°
2026-04-15 13:49 48.95964 10.79215 29233 ft 475 kts 134°
2026-04-15 13:49 48.91205 10.86188 29239 ft 475 kts 134°
2026-04-15 13:50 48.86446 10.93158 29217 ft 475 kts 134°
2026-04-15 13:50 48.81682 11.00110 29231 ft 475 kts 133°
2026-04-15 13:51 48.76913 11.07045 28724 ft 475 kts 133°
2026-04-15 13:51 48.74528 11.10508 28189 ft 474 kts 133°
2026-04-15 13:51 48.72180 11.13905 27673 ft 473 kts 134°
2026-04-15 13:52 48.69797 11.17340 27156 ft 473 kts 134°
2026-04-15 13:52 48.67417 11.20767 26652 ft 472 kts 134°
2026-04-15 13:52 48.65048 11.24213 26154 ft 471 kts 132°
2026-04-15 13:52 48.62952 11.27988 25664 ft 468 kts 124°
2026-04-15 13:53 48.61000 11.31926 25173 ft 468 kts 125°
2026-04-15 13:53 48.59055 11.35847 24726 ft 464 kts 125°
2026-04-15 13:53 48.57126 11.39730 24257 ft 460 kts 125°
2026-04-15 13:53 48.55216 11.43570 23793 ft 456 kts 125°
2026-04-15 13:54 48.53318 11.47371 23250 ft 452 kts 125°
2026-04-15 13:54 48.51458 11.51086 22715 ft 448 kts 126°
2026-04-15 13:54 48.49586 11.54811 22189 ft 444 kts 126°
2026-04-15 13:54 48.47764 11.58541 21667 ft 439 kts 122°
2026-04-15 13:55 48.46290 11.62542 21158 ft 434 kts 113°
2026-04-15 13:55 48.45208 11.66756 20657 ft 430 kts 108°
2026-04-15 13:55 48.44204 11.70985 20158 ft 427 kts 108°
2026-04-15 13:55 48.43198 11.75170 19694 ft 424 kts 109°
2026-04-15 13:56 48.42190 11.79327 19205 ft 421 kts 109°
2026-04-15 13:56 48.41198 11.83403 18741 ft 419 kts 110°
2026-04-15 13:56 48.40190 11.87556 18223 ft 416 kts 109°
2026-04-15 13:56 48.39216 11.91571 17705 ft 413 kts 110°
2026-04-15 13:57 48.38235 11.95612 17176 ft 410 kts 110°
2026-04-15 13:57 48.37258 11.99620 16658 ft 407 kts 110°
2026-04-15 13:57 48.36279 12.03614 16147 ft 405 kts 110°
2026-04-15 13:57 48.35307 12.07571 15647 ft 402 kts 110°
2026-04-15 13:58 48.34346 12.11490 15159 ft 399 kts 110°
2026-04-15 13:58 48.33389 12.15401 14670 ft 397 kts 110°
2026-04-15 13:58 48.32439 12.19282 14194 ft 394 kts 110°
2026-04-15 13:58 48.31504 12.23086 13690 ft 392 kts 111°
2026-04-15 13:59 48.30560 12.26906 13156 ft 389 kts 111°
2026-04-15 13:59 48.29622 12.30704 12641 ft 387 kts 111°
2026-04-15 13:59 48.28690 12.34476 12130 ft 384 kts 112°
2026-04-15 13:59 48.27765 12.38205 11631 ft 380 kts 111°
2026-04-15 14:00 48.26840 12.41920 11133 ft 378 kts 112°
2026-04-15 14:00 48.25922 12.45600 10649 ft 375 kts 112°
2026-04-15 14:00 48.25013 12.49242 10176 ft 371 kts 112°
2026-04-15 14:00 48.24177 12.52589 9686 ft 366 kts 111°
2026-04-15 14:01 48.22429 12.59597 8655 ft 356 kts 112°
2026-04-15 14:01 48.21568 12.63043 8149 ft 351 kts 111°
2026-04-15 14:01 48.20714 12.66449 7652 ft 347 kts 111°
2026-04-15 14:02 48.19867 12.69809 7160 ft 343 kts 111°
2026-04-15 14:02 48.19028 12.73125 6678 ft 338 kts 111°
2026-04-15 14:02 48.18200 12.76396 6165 ft 333 kts 110°
2026-04-15 14:02 48.17352 12.79589 5647 ft 327 kts 116°
2026-04-15 14:03 48.16067 12.82238 5131 ft 304 kts 136°
2026-04-15 14:03 48.14392 12.83982 4619 ft 285 kts 154°
2026-04-15 14:03 48.12554 12.84594 4145 ft 270 kts 182°
2026-04-15 14:03 48.10726 12.84289 4035 ft 265 kts 185°
2026-04-15 14:04 48.08896 12.83959 4032 ft 264 kts 185°
2026-04-15 14:04 48.07071 12.83636 4030 ft 264 kts 183°
2026-04-15 14:04 48.05269 12.83899 4032 ft 259 kts 161°
2026-04-15 14:04 48.03650 12.84865 4035 ft 243 kts 154°
2026-04-15 14:05 48.02156 12.85874 4030 ft 230 kts 154°
2026-04-15 14:05 48.00692 12.86826 4034 ft 229 kts 155°
2026-04-15 14:05 47.99231 12.87759 4035 ft 228 kts 155°
2026-04-15 14:05 47.97770 12.88690 4036 ft 228 kts 154°
2026-04-15 14:06 47.96360 12.89587 4062 ft 215 kts 154°
2026-04-15 14:06 47.95050 12.90419 4050 ft 194 kts 154°
2026-04-15 14:06 47.93870 12.91169 4029 ft 176 kts 154°
2026-04-15 14:06 47.92780 12.91863 4013 ft 167 kts 154°
2026-04-15 14:07 47.91723 12.92537 3869 ft 165 kts 155°
2026-04-15 14:07 47.90677 12.93202 3686 ft 162 kts 154°
2026-04-15 14:07 47.89637 12.93863 3485 ft 163 kts 154°
2026-04-15 14:07 47.88599 12.94522 3268 ft 161 kts 154°
2026-04-15 14:08 47.87570 12.95175 3075 ft 160 kts 155°
2026-04-15 14:08 47.86588 12.95798 2846 ft 152 kts 153°
2026-04-15 14:08 47.85626 12.96408 2640 ft 149 kts 154°
2026-04-15 14:08 47.84678 12.97006 2412 ft 148 kts 155°
2026-04-15 14:09 47.83726 12.97596 2151 ft 148 kts 156°
2026-04-15 14:09 47.82770 12.98175 1908 ft 148 kts 158°
2026-04-15 14:09 47.81824 12.98830 1723 ft 150 kts 156°
2026-04-15 14:09 47.80866 12.99440 1553 ft 150 kts 159°
2026-04-15 14:10 47.79918 13.00034 1438 ft 142 kts 158°
2026-04-15 14:10 47.79110 13.00531 1420 ft 101 kts 156°
2026-04-15 14:10 47.78619 13.00841 1423 ft 57 kts 158°
2026-04-15 14:10 47.78347 13.01009 1422 ft 30 kts 157°
2026-04-15 14:11 47.78221 13.01035 1421 ft 26 kts 210°
2026-04-15 14:11 47.78257 13.00812 1420 ft 29 kts 331°
2026-04-15 14:11 47.78330 13.00758 1423 ft 0 kts 336°
2026-04-15 14:12 47.78340 13.00752 1421 ft 7 kts 336°
2026-04-15 14:12 47.78445 13.00684 1423 ft 20 kts 338°
2026-04-15 14:12 47.78562 13.00612 1423 ft 19 kts 336°
2026-04-15 14:13 47.78676 13.00539 1423 ft 14 kts 336°
2026-04-15 14:13 47.78759 13.00485 1420 ft 13 kts 336°
2026-04-15 14:13 47.78842 13.00438 1420 ft 12 kts 339°
2026-04-15 14:13 47.78919 13.00391 1420 ft 12 kts 335°
2026-04-15 14:14 47.78955 13.00302 1420 ft 10 kts 278°
2026-04-15 14:14 47.78959 13.00207 1420 ft 9 kts 277°
2026-04-15 14:14 47.78991 13.00144 1420 ft 7 kts 330°
2026-04-15 14:14 47.79035 13.00114 1421 ft 7 kts 335°
2026-04-15 14:15 47.79066 13.00076 1421 ft 5 kts 298°
2026-04-15 14:15 47.79080 13.00031 1423 ft 4 kts 287°
2026-04-15 14:15 47.79085 12.99995 1420 ft 3 kts 282°
2026-04-15 14:15 47.79089 12.99969 1421 ft 2 kts 282°
2026-04-15 14:16 47.79090 12.99960 1423 ft 0 kts 282°